Location: Banff
(51.1667°N, 115.5667°W)
Time: 09:23:11
(UTC+00:00)

Envisat - Pass Details

Date: 29 November 2022
Orbit: 763 x 765 km, 98.2° (Epoch: 28 January)

Event Time Altitude Azimuth Distance (km) Brightness Sun altitude
Rises 11:48:46 0° 16° (NNE) 3,247 6.5 -32.4°
Reaches altitude 10° 11:51:07 10° 20° (NNE) 2,316 5.7 -32.1°
Enters shadow 11:54:35 41° 41° (NE) 1,102 4.0 -31.5°
